Weather Roundup
Issued by NWS Chicago, IL

Home | Current Version | Previous Version | Graphics & Text | Print | Product List | Glossary On
Versions: 1 2 3 4 5 6 7 8 9 10 11 12 13 14 15 16 17 18 19 20 21 22 23 24 25 26 27 28 29 30 31 32 33 34 35 36 37 38 39 40 41 42 43 44 45 46 47 48 49 50
000
NZUS59 KLOT 292000
HRRLOT

CHICAGO AREA WEATHER ROUNDUP
NATIONAL WEATHER SERVICE CHICAGO/ROMEOVILLE IL
300 PM CDT SUN MAR 29 2015

NOTE: "FAIR" INDICATES FEW OR NO CLOUDS BELOW 12,000 FEET WITH NO
SIGNIFICANT WEATHER AND/OR OBSTRUCTIONS TO VISIBILITY.

* THESE STATIONS ARE NOT UNDER NWS QUALITY CONTROL. THEY ALSO MAY NOT
  REPORT WEATHER SUCH AS PRECIPITATION OR FOG.

ILZ005-006-012>014-019>023-292100-
NORTHEAST ILLINOIS

CITY           SKY/WX    TMP DP  RH WIND       PRES   REMARKS
OHARE          CLOUDY    38  29  70 SW25G35   29.82F
MIDWAY         CLOUDY    38  30  73 S21G28    29.86F
AURORA         CLOUDY    41  31  67 S20G28    29.85F
WAUKEGAN       NOT AVBL
DUPAGE AIRPORT CLOUDY    38  31  76 S17G30    29.84F
WHEELING       CLOUDY    38  28  67 S24G35    29.84F
NORTHERLY IS     N/A     37  27  67 S17         N/A
$$

WIZ051-052-058>065-066-070>072-292100-
SOUTHEAST WISCONSIN

CITY           SKY/WX    TMP DP  RH WIND       PRES   REMARKS
MILWAUKEE      CLOUDY    38  29  70 SW32G41   29.74F
KENOSHA*       CLOUDY    37  30  75 SW18G31   29.77F
RACINE*        CLOUDY    38  30  73 SW21G39   29.77F
WAUKESHA       CLOUDY    34  28  80 S17G38    29.74F WCI  23
$$

INZ001>003-010>013-019-020-292100-
NORTHWEST INDIANA

CITY           SKY/WX    TMP DP  RH WIND       PRES   REMARKS
GARY*          CLOUDY    37  25  60 S22G33    29.87F
MICHIGAN CITY* NOT AVBL
RENSSELAER*    NOT AVBL
$$

LMZ740>746-292100-
SOUTHERN LAKE MICHIGAN

STATION/POSITION TIME  SKY/WX   TEMP WIND        PRES    VSBY
                                AIR  DIR/SP/G
                 (UTC)          (F)  (DEG/KT/KT) (MB)    (MI)
HARRISON CRIB    1900            36  200/ 36/ 48   N/A
BURNHAM HARBOR   1900            36  210/ 20/ 32   N/A
CALUMET HARBOR   1900            36  180/ 17/ 29 1010.4F
BURNS HARBOR     1937            37  190/ 22/ 28 1011.5F
MICHIGAN CITY    1900            36  170/ 22/ 31   N/A
$$

ABBREVIATIONS USED IN REMARKS
   TC - TEMPERATURE IN CELSIUS
  WCI - WIND CHILL INDEX
   HX - HEAT INDEX
  VSB - VISIBILITY
$$



USA.gov is the U.S. government's official web portal to all federal, state and local government web resources and services.